Wetbulb
45.55 45.53 45.85 46.49 46.82 46.32 45.76 45.80 46.39 46.41 45.81 44.83 44.35 44.24 44.15 43.94 43.75 43.94 44.18 44.07 44.08 44.12 44.11 44.04 44.27 44.11 43.79 43.78 43.69 43.36 43.04 42.92 42.93 43.81 44.36 43.94 42.69 42.23 42.16 42.08 42.00 41.86 41.77 41.78 41.73 41.66 41.63 41.60 41.72 42.10 42.54 42.65 42.31 41.99 41.83 42.07 41.58 41.51 41.59 41.85 42.00 41.81 41.42 41.27 41.59 41.59 41.52 41.56 42.06
44.64 44.82 45.60 47.26 47.37 46.80 46.06 46.02 46.20 46.09 45.71 45.03 44.67 44.28 44.13 44.02 43.85 43.85 43.81 43.61 44.14 44.34 44.37 44.50 44.32 43.84 43.47 43.61 43.56 43.24 42.80 42.60 42.55 42.70 42.85 42.52 42.00 41.77 41.64 41.46 41.39 41.46 41.45 41.19 40.93 41.06 41.15 40.90 41.05 41.40 41.74 41.83 41.46 41.07 41.07 41.61 41.04 40.75 40.64 40.56 40.98 41.13 41.12 41.08 40.94 40.87 40.83 40.99 41.07
44.36 44.50 44.64 44.92 44.92 45.08 45.28 45.42 45.16 44.67 44.28 44.32 44.60 44.52 44.43 44.39 44.25 44.17 44.09 44.01 44.02 44.14 44.21 44.29 43.86 43.52 43.26 42.94 42.77 42.54 42.34 42.18 42.01 41.76 41.51 41.43 41.56 41.47 41.43 41.21 41.06 41.31 41.52 41.10 40.44 40.45 40.60 40.35 40.93 41.55 41.89 41.46 40.55 40.24 40.32 40.54 40.71 40.40 40.08 39.73 40.30 40.71 40.91 41.27 40.51 40.37 40.49 40.84 40.32
43.92 43.87 43.81 43.86 43.86 43.62 43.62 44.15 43.91 43.69 43.84 44.28 44.36 44.42 44.52 44.49 44.64 44.57 44.31 43.95 43.74 43.69 43.64 43.30 43.12 42.93 42.75 42.32 42.17 41.90 42.06 42.85 42.60 41.88 41.21 41.00 41.11 41.14 41.09 40.80 40.70 40.53 40.32 40.15 39.86 39.73 39.75 39.89 40.54 41.00 40.92 40.01 39.46 39.50 39.89 40.34 40.04 39.92 39.76 39.49 39.83 39.86 40.00 40.56 40.10 40.21 40.52 40.32 39.58
43.43 43.37 43.32 43.24 43.38 43.18 42.95 42.97 42.92 43.06 43.27 43.82 44.06 44.24 44.29 44.24 44.22 44.07 43.72 43.57 43.18 43.16 43.10 42.61 42.50 42.39 42.27 42.00 41.74 41.50 41.50 41.85 43.34 42.48 40.99 40.54 40.58 40.57 40.61 40.52 40.32 40.12 39.91 39.71 39.50 39.57 39.69 39.61 40.18 40.26 39.92 39.42 39.81 39.73 39.54 39.38 39.19 39.11 39.19 39.60 39.52 39.51 39.46 39.49 39.57 39.53 39.54 39.56 39.00
43.11 43.16 43.09 43.00 43.15 43.03 42.84 42.86 43.04 43.09 43.25 43.62 43.40 43.10 43.01 43.57 43.50 43.13 42.70 42.34 42.25 42.35 42.67 43.13 42.84 42.72 42.41 41.51 41.31 41.07 40.87 40.56 40.99 40.71 40.24 39.91 39.99 40.07 40.10 39.93 39.65 39.42 39.34 39.39 39.17 39.31 39.34 38.87 39.79 39.99 39.80 39.97 39.57 39.23 39.11 38.99 38.83 38.56 38.38 38.65 38.96 38.99 38.76 38.50 38.87 38.95 38.73 38.38 37.95
43.00 42.92 42.90 42.90 42.97 42.95 42.87 42.97 43.01 43.09 43.05 42.89 42.80 42.57 42.33 42.34 42.08 41.82 41.68 41.72 41.73 41.93 42.30 43.06 42.45 41.96 41.46 40.88 40.64 40.48 40.28 40.08 39.93 39.81 39.76 39.53 39.61 39.63 39.58 39.27 39.07 38.93 38.83 38.90 38.79 38.68 38.65 38.34 39.26 39.87 40.44 41.13 40.42 39.54 38.80 38.55 38.43 38.16 37.98 38.11 38.73 38.80 38.34 37.61 38.19 38.34 37.98 37.33 37.12
43.03 43.00 43.02 43.02 43.01 42.95 42.92 43.06 42.96 43.01 42.96 42.85 42.39 42.32 42.33 42.12 41.85 41.78 41.63 41.48 41.25 41.36 41.73 42.00 41.02 40.59 40.40 40.20 39.92 39.68 39.56 39.37 39.33 39.29 39.30 39.22 39.11 39.02 38.89 38.69 38.54 38.47 38.36 38.29 38.23 38.12 38.19 38.38 38.96 38.96 38.92 39.38 39.73 39.31 38.64 38.18 37.99 37.72 37.49 37.48 38.46 38.53 38.27 38.19 38.00 37.94 37.78 37.32 37.22
42.71 42.96 43.17 43.26 43.16 43.09 43.09 43.14 43.10 43.03 42.78 42.46 42.24 42.29 42.35 42.34 41.93 41.59 41.40 41.21 41.62 41.66 41.43 40.97 40.58 40.38 40.15 39.77 39.56 39.36 39.24 39.15 38.96 38.85 38.71 38.64 38.59 38.40 38.24 38.13 38.09 38.06 37.98 37.88 37.93 37.74 37.81 38.31 38.54 38.53 38.57 39.11 39.11 38.84 38.46 38.12 38.00 37.74 37.54 37.56 37.83 37.94 37.85 37.78 37.69 37.67 37.60 37.34 37.25
42.63 42.80 42.97 43.11 43.22 43.22 43.23 43.28 43.32 43.28 42.97 42.40 42.39 42.55 42.86 43.76 42.76 41.88 41.37 41.62 41.88 41.44 40.79 40.35 40.15 39.95 39.75 39.47 39.27 39.08 39.00 38.92 38.88 38.72 38.76 38.83 38.98 38.67 38.22 37.94 37.83 37.72 37.65 37.55 37.63 37.63 37.65 37.88 37.72 37.60 37.63 37.82 37.79 37.88 38.00 38.04 37.78 37.63 37.66 38.15 37.84 37.44 37.19 37.34 37.48 37.42 37.45 37.49 37.20
42.76 42.77 42.70 42.74 43.08 43.32 43.38 43.24 43.23 43.08 42.80 42.18 42.12 42.16 42.39 42.92 42.24 41.97 41.87 41.79 41.01 40.44 40.12 40.03 39.83 39.55 39.28 39.09 39.05 39.16 39.19 38.89 38.70 38.58 38.46 38.49 38.79 38.53 38.08 37.94 37.79 37.68 37.57 37.50 37.33 37.21 37.19 37.30 36.87 36.88 37.00 37.06 37.15 37.43 37.63 37.44 37.21 37.10 37.03 37.17 36.89 36.73 36.73 36.86 36.89 36.91 36.89 36.88 36.77
42.72 42.72 42.69 42.74 42.94 43.10 43.14 42.88 42.61 42.50 42.32 42.05 41.71 41.60 41.46 41.29 41.42 41.79 41.85 41.09 40.44 40.04 39.84 39.90 39.67 39.39 39.05 38.90 38.86 39.24 39.38 38.85 38.65 38.57 38.42 38.24 38.16 38.01 37.94 37.91 37.76 37.61 37.50 37.43 37.03 36.88 36.75 36.56 36.29 36.18 36.26 36.10 36.75 37.10 37.10 36.72 36.57 36.54 36.46 36.42 36.22 36.17 36.32 36.48 36.58 36.69 36.66 36.26 36.40
42.73 42.75 42.76 42.79 42.95 43.02 42.82 42.46 42.09 41.96 41.86 41.74 41.33 41.14 41.08 41.21 41.71 41.70 41.24 40.28 40.12 39.81 39.53 39.67 39.85 39.55 39.13 38.83 38.71 38.59 38.51 38.51 38.47 38.50 38.50 38.21 38.14 37.95 37.84 37.69 37.58 37.36 37.10 36.92 36.77 36.62 36.39 36.15 36.08 36.05 35.98 35.75 36.31 36.57 36.56 36.33 36.26 36.14 36.06 35.98 36.01 35.96 36.00 36.27 36.51 36.61 36.35 35.89 36.25
42.75 42.72 42.66 42.72 42.84 42.68 42.27 42.01 41.88 41.76 41.64 41.39 41.11 41.00 40.97 40.89 41.54 41.45 40.77 39.73 39.54 39.34 39.30 39.33 39.71 39.79 39.63 39.09 38.71 38.59 38.55 38.51 38.40 38.29 38.22 38.33 38.11 37.81 37.55 37.40 37.14 36.96 36.70 36.51 36.47 36.36 36.17 35.94 35.85 35.81 35.77 35.65 35.87 36.02 36.16 36.17 36.12 35.96 35.90 35.81 35.81 35.93 36.05 36.29 36.41 36.32 36.14 35.73 35.92
42.40 42.51 42.60 42.67 42.53 42.24 41.87 41.76 41.76 41.68 41.52 41.25 41.09 40.93 40.73 40.42 41.14 41.22 40.69 39.54 39.34 39.23 39.03 38.84 38.95 39.45 39.82 39.64 39.04 38.78 38.63 38.48 38.37 38.22 38.11 38.04 37.85 37.55 37.25 37.07 36.88 36.63 36.48 36.33 36.28 36.20 36.09 35.96 35.92 35.83 35.75 35.66 35.84 35.99 36.14 36.28 36.23 36.23 36.21 36.09 36.08 36.12 36.17 36.29 36.44 36.47 36.34 36.01 36.07
42.19 42.35 42.47 42.35 42.18 41.93 41.64 41.45 41.45 41.41 41.30 41.07 40.94 40.78 40.51 40.24 40.58 40.77 40.65 39.77 39.23 38.92 38.73 38.50 38.34 38.31 38.68 39.67 39.63 39.21 38.76 38.49 38.30 38.04 37.78 37.55 37.37 37.22 36.96 36.77 36.62 36.47 36.32 36.24 36.12 36.04 36.07 36.03 36.02 35.92 35.87 35.85 35.91 36.06 36.16 36.31 36.30 36.33 36.28 36.40 36.40 36.43 36.55 36.86 37.01 36.92 36.80 36.82 36.71
42.03 42.15 42.17 42.08 41.91 41.65 41.48 41.18 41.10 41.07 41.03 40.91 40.90 40.67 40.44 40.24 40.08 40.51 40.92 40.57 39.38 38.69 38.42 38.42 38.19 38.04 38.19 39.00 39.38 39.23 38.80 38.34 38.04 37.78 37.51 37.36 37.14 36.99 36.80 36.58 36.54 36.42 36.23 36.11 35.95 35.91 35.94 36.04 36.15 36.14 36.08 36.05 36.23 36.33 36.35 36.45 36.52 36.47 36.50 36.63 36.71 36.79 36.98 37.78 37.90 37.69 37.48 37.43 37.51
41.76 41.89 41.98 41.93 41.64 41.50 41.35 41.21 40.98 40.91 40.91 40.83 40.67 40.55 40.40 40.20 39.93 39.88 40.15 40.45 39.45 38.69 38.31 38.23 38.23 38.16 38.12 38.11 38.34 38.69 38.84 38.27 37.85 37.58 37.43 37.21 37.02 36.87 36.61 36.42 36.60 36.41 36.21 36.02 35.89 35.92 36.02 36.14 36.32 36.46 36.52 36.48 36.58 36.72 36.81 36.83 36.87 36.90 37.06 37.23 37.40 37.61 37.98 38.59 38.87 39.04 38.95 38.40 38.73
41.50 41.63 41.65 41.55 41.45 41.34 41.43 41.78 41.40 41.05 40.86 40.82 40.70 40.54 40.35 40.15 39.80 39.34 39.03 38.99 39.33 38.91 38.31 38.08 38.15 38.15 38.19 38.27 38.08 38.73 39.11 38.42 37.88 37.54 37.36 37.21 36.94 36.71 36.52 36.33 36.33 36.25 36.13 36.00 35.99 36.05 36.19 36.34 36.52 36.70 36.86 36.84 36.89 37.02 37.12 37.23 37.39 37.60 37.86 38.07 38.37 38.86 39.35 39.72 40.28 40.72 40.96 40.72 40.91
41.44 41.46 41.39 41.41 41.38 41.27 41.28 41.51 41.29 41.05 40.86 40.78 40.74 40.50 40.30 39.99 39.60 39.06 38.64 38.34 38.91 38.76 38.38 38.12 38.04 38.11 38.11 38.19 38.11 38.31 38.53 38.38 37.81 37.46 37.20 37.05 36.71 36.52 36.33 36.25 36.10 36.12 36.07 36.02 36.04 36.14 36.28 36.50 36.76 36.89 37.05 37.21 37.26 37.23 37.36 37.70 38.17 38.60 38.89 38.89 38.97 39.37 39.91 40.60 41.28 41.77 42.02 41.89 41.92
41.42 41.35 41.33 41.37 41.28 41.17 41.06 41.06 41.10 41.02 40.98 40.90 40.70 40.35 40.00 39.64 39.22 38.76 38.53 38.61 38.76 38.61 38.31 38.03 38.03 38.03 37.92 37.88 37.80 37.73 37.80 38.22 37.57 37.16 36.90 36.79 36.74 36.63 36.52 36.47 36.11 35.99 36.05 35.99 36.17 36.34 36.48 36.69 36.90 37.10 37.27 37.47 37.67 37.75 37.76 38.01 38.26 38.86 39.32 39.27 39.31 39.72 40.38 41.08 41.69 41.97 42.00 41.65 41.72
41.27 41.24 41.26 41.26 41.12 41.17 41.17 41.14 41.14 41.06 40.98 40.83 40.55 40.23 39.72 39.26 38.87 38.64 38.57 38.72 38.61 38.30 38.06 37.85 37.93 37.90 37.75 37.48 37.44 37.37 37.46 37.64 37.15 36.89 36.67 36.56 36.44 36.52 36.66 36.45 35.97 35.88 35.90 35.98 36.19 36.48 36.86 37.12 37.28 37.54 37.86 38.40 38.87 39.20 39.31 39.42 39.27 39.30 39.29 39.19 39.49 39.96 40.51 40.96 41.28 41.42 41.56 41.67 41.97
41.27 41.13 41.03 41.07 41.16 41.75 42.10 41.65 41.18 41.02 40.87 40.67 40.39 39.92 39.49 39.07 38.80 38.65 38.49 38.34 38.54 38.19 37.95 37.78 37.80 37.77 37.74 37.64 37.49 37.35 37.12 36.89 36.63 36.52 36.48 36.29 36.02 36.09 36.11 35.81 35.62 35.59 35.76 36.16 36.38 36.71 37.09 37.44 37.89 38.39 39.03 39.82 39.90 39.92 39.89 39.94 40.09 39.81 39.49 39.45 39.97 40.44 40.93 41.28 41.35 41.53 41.89 42.71 43.45
41.27 41.13 40.95 40.93 41.01 41.17 41.21 41.06 40.87 40.75 40.59 40.36 40.08 39.65 39.26 38.92 38.61 38.42 38.23 38.04 38.04 37.93 37.89 37.89 37.77 37.68 37.70 37.84 37.66 37.31 36.89 36.50 36.24 36.17 36.17 36.09 35.88 35.71 35.69 35.66 35.53 35.59 35.91 36.63 38.17 39.01 39.41 39.44 39.53 39.83 40.22 40.46 40.53 40.59 40.64 40.61 40.33 40.10 39.97 40.10 40.81 41.46 42.03 42.48 42.11 42.14 42.45 42.86 43.53
41.12 41.31 41.39 40.73 40.81 40.70 40.67 40.63 40.59 40.48 40.28 40.01 39.73 39.38 38.96 38.69 38.42 38.16 37.93 37.89 37.85 37.89 37.89 37.85 37.85 37.66 37.61 37.65 37.46 37.19 36.81 36.34 36.14 35.98 35.75 35.70 35.65 35.58 35.47 35.47 35.70 35.91 36.79 38.82 42.01 43.63 44.08 43.72 42.83 42.10 41.36 40.93 40.82 40.92 40.98 40.88 40.74 40.64 40.66 40.85 41.90 42.61 42.99 43.20 42.84 42.48 42.31 42.41 42.77
40.77 40.93 41.01 40.61 40.54 40.51 40.51 40.44 40.36 40.28 40.05 39.73 39.27 38.84 38.54 38.34 38.23 38.04 37.78 37.70 37.70 37.78 37.82 37.74 37.66 38.42 38.88 37.86 37.36 36.99 36.64 36.16 35.99 35.82 35.62 35.45 35.37 35.21 35.20 35.57 35.92 36.29 37.70 40.92 43.42 44.63 45.12 45.37 45.18 44.22 43.00 41.64 41.36 41.18 41.05 40.88 40.92 41.24 41.60 41.83 42.58 42.84 42.74 42.43 41.77 41.38 41.31 41.55 41.79
40.32 40.26 40.34 40.46 40.43 40.39 40.32 40.28 40.16 39.93 39.66 39.27 38.76 38.42 38.15 38.00 37.89 37.78 37.70 37.55 37.66 37.74 37.81 37.77 37.65 38.99 39.69 37.75 37.14 36.77 36.46 36.08 35.86 35.69 35.57 35.28 35.15 34.91 34.92 35.41 35.78 36.70 38.70 42.33 44.06 44.95 45.36 45.78 45.88 45.61 44.69 42.92 42.68 42.45 42.32 42.16 42.24 42.41 42.66 42.87 42.87 42.42 41.58 40.87 40.49 40.39 40.52 40.68 40.72
39.95 40.03 40.15 40.27 40.20 40.12 40.16 40.16 39.97 39.66 39.27 38.88 38.53 38.27 38.04 37.93 37.81 37.62 37.51 37.55 37.62 37.69 37.64 37.58 38.00 38.30 38.04 37.03 36.66 36.61 36.44 36.08 35.75 35.55 35.34 35.07 34.95 34.75 34.84 35.28 35.48 37.40 40.39 43.74 44.49 45.02 45.48 45.91 46.22 46.33 45.95 44.77 43.57 43.17 43.14 43.13 43.29 43.37 43.41 43.27 42.91 41.74 40.54 39.90 39.86 39.74 39.61 39.80 40.64
39.99 40.00 40.04 39.93 39.85 39.89 39.97 39.89 39.62 39.34 39.03 38.73 38.50 38.34 38.19 37.89 37.66 37.51 37.47 37.54 37.57 37.51 37.39 37.57 38.12 37.75 37.05 36.54 36.36 36.18 36.08 35.93 35.55 35.30 35.02 34.65 34.43 34.47 34.84 35.36 35.92 38.43 41.53 44.25 44.65 44.99 45.41 45.84 46.28 46.64 46.68 46.29 44.78 44.09 43.75 43.60 43.37 43.23 43.09 42.82 42.11 41.19 40.25 39.73 39.50 39.37 39.47 40.07 41.68
40.03 39.92 39.73 39.66 39.70 39.70 39.73 39.58 39.38 39.15 38.92 38.65 38.42 38.12 37.85 37.62 37.46 37.38 37.45 37.56 37.57 37.77 37.99 38.09 37.76 37.25 36.74 36.40 36.21 35.98 35.83 35.71 35.39 35.04 34.63 34.20 34.36 34.59 35.20 36.67 36.41 38.26 41.16 44.06 44.51 44.92 45.34 45.81 46.29 46.70 46.95 46.85 45.91 44.97 44.23 43.64 43.32 42.88 42.40 41.65 40.69 39.93 39.40 39.15 39.09 39.20 39.77 40.90 42.38
39.88 39.81 39.73 39.73 39.66 39.58 39.54 39.46 39.23 39.00 38.73 38.38 38.07 37.84 37.53 37.26 37.25 37.31 37.44 37.65 37.82 38.73 39.29 38.71 37.55 36.88 36.54 36.56 36.24 35.98 35.72 35.48 35.19 34.85 34.43 34.04 35.65 36.07 35.82 35.67 35.75 37.94 41.08 43.82 44.31 44.80 45.35 45.81 46.26 46.59 46.88 47.03 46.26 45.11 43.97 43.11 42.40 41.61 40.80 39.98 39.43 39.14 38.99 39.07 39.14 39.52 40.12 40.89 41.67
39.96 39.89 39.81 39.70 39.54 39.38 39.30 39.23 39.03 38.76 38.53 38.22 37.84 37.57 37.33 37.09 37.24 37.40 37.69 38.08 38.39 38.50 38.38 37.90 37.11 36.64 36.42 36.36 36.09 35.91 35.65 35.32 35.05 35.00 35.19 35.22 34.93 34.75 34.97 35.77 35.68 37.86 41.08 43.83 44.31 44.85 45.31 45.74 46.10 46.47 46.70 46.89 46.21 44.76 43.00 41.65 40.56 39.92 39.33 39.00 38.87 38.79 38.92 39.29 39.51 39.74 40.09 40.56 40.71
40.04 39.93 39.73 39.46 39.30 39.18 39.07 38.99 38.80 38.52 38.25 37.86 37.63 37.40 37.31 37.08 37.29 37.63 37.95 38.34 38.41 37.91 37.39 37.04 36.62 36.28 36.05 35.99 35.85 35.67 35.56 35.55 35.46 36.18 36.76 36.58 35.52 35.09 35.23 36.02 35.93 38.59 41.89 43.96 44.44 44.94 45.36 45.70 45.98 46.22 46.40 46.58 45.56 43.58 41.56 40.10 39.61 39.19 38.93 38.80 38.75 38.75 38.80 38.89 39.42 39.95 40.58 40.94 41.05
39.97 39.74 39.50 39.18 39.18 38.98 38.86 38.75 38.51 38.20 37.81 37.49 37.31 37.34 37.28 37.09 37.28 37.59 38.04 38.68 38.56 38.07 37.48 37.01 36.66 36.39 36.17 36.03 35.79 35.57 35.83 37.03 35.91 35.04 34.67 34.80 34.79 35.07 35.37 35.55 36.10 39.23 42.58 44.08 44.57 44.98 45.33 45.60 45.83 46.02 46.15 46.28 44.48 42.33 40.44 39.39 39.03 38.73 38.59 38.50 38.60 38.70 38.90 39.19 40.10 41.11 41.99 42.56 42.40
39.81 39.50 39.18 38.97 38.89 38.77 38.61 38.46 38.18 37.91 37.59 37.20 37.16 37.25 37.27 37.33 37.40 37.59 38.21 39.50 39.54 38.57 37.48 37.06 36.87 36.60 36.37 36.22 35.83 35.80 35.97 36.42 35.21 34.60 34.45 34.59 34.70 35.11 35.53 35.45 36.31 39.56 42.91 44.32 44.65 44.91 45.21 45.49 45.76 45.94 45.99 45.58 43.45 41.49 39.91 39.13 38.64 38.44 38.37 38.26 38.32 38.50 38.89 39.43 40.67 41.79 42.72 43.36 42.90
39.70 39.41 39.05 38.88 38.80 38.64 38.44 38.20 37.85 37.65 37.33 37.06 37.00 36.98 37.07 37.36 37.53 37.83 38.67 40.33 39.54 38.23 37.05 36.84 36.69 36.46 36.20 36.01 35.67 36.19 36.43 35.46 35.12 34.93 35.02 35.37 35.18 34.97 34.93 35.14 36.05 39.21 42.58 44.32 44.57 44.83 45.10 45.41 45.68 45.95 45.84 44.74 42.60 41.07 40.08 39.29 38.68 38.27 38.20 38.03 38.08 38.34 38.93 39.61 40.46 41.36 42.14 42.61 42.18
39.77 39.49 39.16 38.83 38.66 38.50 38.30 38.02 37.66 37.30 36.98 36.81 36.85 36.91 37.08 37.31 37.44 37.87 38.59 39.66 38.04 37.09 36.62 36.53 36.30 36.08 35.93 35.74 35.64 35.80 35.88 35.57 35.33 35.29 35.57 36.40 35.84 35.21 34.99 35.46 36.10 38.84 41.98 44.05 44.29 44.59 44.80 45.20 45.55 45.83 45.42 43.87 42.02 40.95 40.11 39.22 38.40 37.87 37.70 37.69 38.07 38.56 39.20 39.97 40.54 41.03 41.42 41.70 42.11
39.85 39.60 39.31 38.85 38.68 38.44 38.20 37.87 37.38 36.98 36.73 36.63 36.88 37.14 37.33 37.45 37.49 37.83 38.58 39.78 37.64 36.69 36.31 36.23 36.09 35.95 35.97 36.01 36.35 36.27 36.02 35.80 36.13 36.01 35.66 35.61 35.56 35.61 35.79 36.28 37.28 39.19 41.49 43.49 43.84 44.17 44.47 44.94 45.56 45.88 45.38 43.56 41.98 40.76 39.74 38.69 37.71 37.47 37.73 38.30 38.88 39.43 39.94 40.64 41.04 41.39 41.69 42.29 44.14
39.96 39.79 39.46 39.08 38.83 38.51 38.22 37.72 37.28 37.00 36.82 36.83 37.04 37.33 37.53 37.60 37.60 38.11 38.90 39.52 37.69 36.75 36.25 36.03 35.98 36.13 36.71 37.67 37.64 37.03 36.30 35.92 36.30 36.46 36.23 35.25 35.79 37.47 38.70 38.27 38.00 38.97 40.66 42.75 43.28 43.68 44.10 44.82 45.61 46.15 45.86 44.08 42.01 40.52 39.35 38.04 37.36 37.48 38.24 39.36 40.05 40.37 40.56 40.93 41.33 41.66 42.26 43.05 45.20
40.04 39.87 39.61 39.16 38.99 38.58 38.12 37.71 37.36 37.18 37.07 37.12 37.19 37.31 37.48 37.88 38.47 39.06 39.27 38.79 37.56 36.88 36.53 36.30 36.32 36.80 37.94 39.71 38.60 37.34 36.25 35.83 35.47 35.81 36.30 36.53 37.51 39.72 41.00 38.94 37.21 37.36 39.07 41.65 42.75 43.45 44.11 44.97 45.89 46.37 45.86 43.61 41.68 40.50 39.39 38.00 37.74 38.08 38.84 39.85 40.13 40.19 40.24 40.47 40.95 41.54 42.10 42.90 44.34
40.03 39.90 39.89 39.55 39.18 38.73 38.19 37.70 37.47 37.37 37.34 37.36 37.35 37.73 38.38 39.18 39.06 38.69 38.17 37.48 37.09 37.03 37.10 37.16 37.03 37.31 38.21 39.82 38.72 37.30 36.05 35.50 35.51 35.57 36.14 37.57 38.04 39.37 39.76 37.46 35.98 35.99 37.27 39.70 41.89 43.29 44.25 45.28 46.11 46.38 45.60 43.42 41.66 40.68 39.83 38.41 38.38 38.63 39.00 39.28 39.42 39.48 39.67 40.03 40.56 41.25 41.87 42.57 42.65
MSLP
1020.41 1020.57 1020.68 1020.84 1020.97 1021.12 1021.28 1021.41 1021.45 1021.48 1021.57 1021.68 1021.77 1021.80 1021.89 1021.92 1021.97 1021.97 1022.01 1022.04 1022.09 1022.09 1022.09 1022.09 1022.09 1022.09 1022.09 1022.09 1022.09 1022.09 1022.09 1022.09 1022.04 1022.01 1021.97 1021.89 1021.84 1021.80 1021.72 1021.68 1021.60 1021.53 1021.53 1021.45 1021.41 1021.41 1021.36 1021.28 1021.24 1021.24 1021.21 1021.12 1021.09 1021.09 1021.01 1020.92 1020.92 1020.84 1020.80 1020.72 1020.68 1020.60 1020.53 1020.53 1020.45 1020.36 1020.24 1020.21 1020.09
1020.53 1020.65 1020.77 1020.89 1021.01 1021.21 1021.36 1021.45 1021.48 1021.53 1021.65 1021.68 1021.80 1021.80 1021.89 1021.92 1022.01 1022.09 1022.09 1022.09 1022.09 1022.09 1022.09 1022.09 1022.09 1022.09 1022.12 1022.09 1022.09 1022.09 1022.09 1022.09 1022.09 1022.01 1021.97 1021.92 1021.84 1021.80 1021.72 1021.68 1021.57 1021.53 1021.48 1021.41 1021.41 1021.36 1021.33 1021.28 1021.24 1021.24 1021.21 1021.12 1021.09 1021.09 1020.97 1020.89 1020.89 1020.80 1020.80 1020.72 1020.65 1020.57 1020.53 1020.45 1020.36 1020.33 1020.24 1020.12 1020.01
1020.60 1020.68 1020.80 1020.97 1021.09 1021.24 1021.41 1021.48 1021.57 1021.68 1021.72 1021.77 1021.80 1021.80 1021.89 1021.97 1022.01 1022.04 1022.09 1022.09 1022.09 1022.12 1022.12 1022.12 1022.12 1022.12 1022.12 1022.12 1022.09 1022.09 1022.09 1022.09 1022.09 1022.04 1022.01 1021.92 1021.84 1021.77 1021.68 1021.65 1021.60 1021.53 1021.48 1021.41 1021.41 1021.36 1021.33 1021.28 1021.28 1021.24 1021.16 1021.09 1021.09 1021.09 1020.97 1020.89 1020.84 1020.80 1020.80 1020.68 1020.60 1020.57 1020.53 1020.45 1020.36 1020.24 1020.21 1020.09 1020.04
1020.68 1020.80 1020.92 1021.09 1021.21 1021.28 1021.41 1021.48 1021.57 1021.68 1021.72 1021.77 1021.80 1021.80 1021.84 1021.92 1021.97 1022.01 1022.09 1022.09 1022.12 1022.12 1022.16 1022.16 1022.16 1022.12 1022.12 1022.12 1022.12 1022.12 1022.09 1022.04 1022.04 1022.01 1021.97 1021.92 1021.84 1021.80 1021.68 1021.65 1021.60 1021.53 1021.48 1021.41 1021.41 1021.36 1021.33 1021.28 1021.24 1021.21 1021.16 1021.09 1021.09 1021.04 1020.97 1020.84 1020.80 1020.77 1020.72 1020.65 1020.57 1020.53 1020.53 1020.41 1020.36 1020.24 1020.16 1020.09 1020.04
1020.84 1020.97 1021.04 1021.12 1021.24 1021.36 1021.45 1021.53 1021.60 1021.68 1021.72 1021.72 1021.80 1021.80 1021.84 1021.89 1021.97 1022.04 1022.09 1022.12 1022.16 1022.16 1022.12 1022.12 1022.16 1022.16 1022.12 1022.16 1022.16 1022.12 1022.09 1022.04 1022.01 1021.97 1021.97 1021.92 1021.84 1021.77 1021.68 1021.60 1021.60 1021.53 1021.48 1021.41 1021.41 1021.33 1021.28 1021.24 1021.24 1021.16 1021.12 1021.09 1021.01 1020.97 1020.92 1020.80 1020.80 1020.72 1020.68 1020.60 1020.53 1020.53 1020.48 1020.36 1020.33 1020.24 1020.16 1020.09 1020.09
1021.01 1021.09 1021.16 1021.24 1021.36 1021.45 1021.53 1021.53 1021.65 1021.68 1021.68 1021.72 1021.80 1021.84 1021.92 1021.97 1022.01 1022.09 1022.16 1022.21 1022.24 1022.21 1022.16 1022.12 1022.16 1022.16 1022.21 1022.21 1022.21 1022.16 1022.12 1022.09 1022.04 1021.97 1021.97 1021.89 1021.80 1021.77 1021.68 1021.60 1021.57 1021.53 1021.45 1021.41 1021.41 1021.33 1021.24 1021.24 1021.21 1021.12 1021.09 1021.01 1020.97 1020.89 1020.84 1020.80 1020.77 1020.72 1020.68 1020.60 1020.53 1020.48 1020.41 1020.36 1020.28 1020.24 1020.21 1020.12 1020.09
1021.09 1021.21 1021.28 1021.41 1021.48 1021.53 1021.60 1021.65 1021.68 1021.68 1021.72 1021.77 1021.84 1021.97 1022.01 1022.04 1022.12 1022.16 1022.24 1022.24 1022.24 1022.24 1022.24 1022.21 1022.24 1022.28 1022.24 1022.24 1022.24 1022.16 1022.12 1022.09 1022.04 1021.97 1021.92 1021.89 1021.80 1021.72 1021.68 1021.60 1021.57 1021.53 1021.48 1021.41 1021.36 1021.28 1021.24 1021.24 1021.16 1021.09 1021.04 1020.97 1020.92 1020.84 1020.80 1020.77 1020.77 1020.68 1020.68 1020.60 1020.48 1020.41 1020.36 1020.36 1020.24 1020.21 1020.16 1020.12 1020.09
1021.21 1021.33 1021.41 1021.48 1021.57 1021.68 1021.72 1021.72 1021.77 1021.80 1021.80 1021.89 1021.97 1022.01 1022.09 1022.09 1022.16 1022.21 1022.24 1022.24 1022.28 1022.28 1022.24 1022.24 1022.28 1022.28 1022.24 1022.24 1022.24 1022.16 1022.12 1022.09 1022.04 1021.97 1021.92 1021.84 1021.80 1021.72 1021.68 1021.65 1021.57 1021.53 1021.45 1021.41 1021.36 1021.28 1021.24 1021.21 1021.12 1021.09 1021.01 1020.97 1020.92 1020.84 1020.80 1020.72 1020.68 1020.68 1020.68 1020.57 1020.45 1020.36 1020.33 1020.24 1020.21 1020.16 1020.12 1020.09 1020.04
1021.36 1021.41 1021.53 1021.57 1021.68 1021.72 1021.80 1021.80 1021.84 1021.92 1021.97 1021.97 1022.01 1022.04 1022.09 1022.09 1022.21 1022.24 1022.24 1022.24 1022.28 1022.28 1022.28 1022.28 1022.28 1022.24 1022.24 1022.24 1022.21 1022.12 1022.09 1022.04 1022.01 1021.97 1021.89 1021.80 1021.80 1021.77 1021.68 1021.65 1021.57 1021.53 1021.41 1021.36 1021.33 1021.24 1021.21 1021.12 1021.09 1021.04 1020.97 1020.92 1020.89 1020.80 1020.77 1020.68 1020.68 1020.65 1020.57 1020.53 1020.41 1020.33 1020.24 1020.21 1020.12 1020.09 1020.04 1020.01 1019.97
1021.48 1021.53 1021.65 1021.68 1021.77 1021.80 1021.80 1021.89 1021.89 1021.92 1021.97 1022.01 1022.04 1022.09 1022.09 1022.09 1022.16 1022.24 1022.24 1022.24 1022.24 1022.24 1022.28 1022.28 1022.24 1022.24 1022.21 1022.16 1022.12 1022.12 1022.09 1022.01 1021.97 1021.92 1021.84 1021.80 1021.80 1021.72 1021.68 1021.60 1021.53 1021.48 1021.41 1021.33 1021.24 1021.21 1021.16 1021.09 1021.09 1021.01 1020.97 1020.92 1020.89 1020.80 1020.72 1020.68 1020.65 1020.60 1020.53 1020.41 1020.36 1020.28 1020.21 1020.12 1020.09 1020.04 1020.01 1019.97 1019.89
1021.53 1021.60 1021.68 1021.80 1021.80 1021.84 1021.89 1021.97 1021.97 1021.97 1022.01 1022.09 1022.09 1022.09 1022.12 1022.12 1022.16 1022.21 1022.21 1022.21 1022.24 1022.28 1022.28 1022.24 1022.24 1022.24 1022.21 1022.16 1022.12 1022.09 1022.04 1021.97 1021.97 1021.92 1021.84 1021.80 1021.77 1021.68 1021.65 1021.57 1021.53 1021.41 1021.36 1021.28 1021.24 1021.16 1021.12 1021.09 1021.09 1021.01 1020.97 1020.89 1020.80 1020.77 1020.68 1020.65 1020.60 1020.53 1020.45 1020.36 1020.33 1020.24 1020.16 1020.09 1020.04 1019.97 1019.97 1019.89 1019.80
1021.60 1021.68 1021.77 1021.84 1021.89 1021.97 1021.97 1022.04 1022.04 1022.04 1022.09 1022.12 1022.12 1022.12 1022.16 1022.21 1022.21 1022.21 1022.24 1022.24 1022.28 1022.28 1022.24 1022.24 1022.24 1022.24 1022.24 1022.16 1022.12 1022.09 1022.01 1021.97 1021.92 1021.89 1021.80 1021.77 1021.72 1021.65 1021.57 1021.53 1021.45 1021.41 1021.33 1021.24 1021.21 1021.12 1021.12 1021.09 1021.04 1021.01 1020.92 1020.84 1020.80 1020.77 1020.68 1020.65 1020.57 1020.53 1020.41 1020.33 1020.24 1020.24 1020.12 1020.09 1020.01 1019.97 1019.92 1019.84 1019.77
1021.65 1021.72 1021.80 1021.89 1021.92 1021.97 1022.01 1022.09 1022.09 1022.09 1022.12 1022.16 1022.16 1022.16 1022.21 1022.21 1022.21 1022.24 1022.24 1022.28 1022.28 1022.28 1022.28 1022.24 1022.21 1022.21 1022.21 1022.16 1022.09 1022.04 1022.01 1021.97 1021.89 1021.84 1021.80 1021.72 1021.68 1021.60 1021.53 1021.48 1021.41 1021.33 1021.24 1021.24 1021.16 1021.09 1021.09 1021.09 1021.04 1020.97 1020.97 1020.84 1020.80 1020.77 1020.68 1020.60 1020.57 1020.53 1020.41 1020.36 1020.24 1020.21 1020.16 1020.09 1020.01 1019.92 1019.84 1019.80 1019.72
1021.68 1021.72 1021.80 1021.89 1021.97 1022.01 1022.04 1022.09 1022.12 1022.16 1022.21 1022.21 1022.21 1022.21 1022.21 1022.24 1022.24 1022.24 1022.24 1022.28 1022.28 1022.28 1022.24 1022.24 1022.24 1022.16 1022.12 1022.09 1022.04 1022.01 1021.97 1021.92 1021.84 1021.80 1021.77 1021.68 1021.65 1021.57 1021.53 1021.45 1021.41 1021.28 1021.24 1021.21 1021.16 1021.09 1021.09 1021.09 1021.01 1020.97 1020.92 1020.80 1020.80 1020.68 1020.65 1020.60 1020.53 1020.45 1020.36 1020.36 1020.24 1020.21 1020.12 1020.04 1019.97 1019.89 1019.80 1019.77 1019.68
1021.68 1021.77 1021.80 1021.92 1021.97 1022.04 1022.09 1022.16 1022.21 1022.21 1022.21 1022.24 1022.24 1022.24 1022.24 1022.24 1022.24 1022.24 1022.24 1022.24 1022.24 1022.24 1022.24 1022.24 1022.24 1022.12 1022.04 1022.01 1021.97 1021.97 1021.97 1021.89 1021.80 1021.80 1021.72 1021.68 1021.60 1021.53 1021.48 1021.41 1021.36 1021.24 1021.24 1021.16 1021.12 1021.09 1021.04 1021.04 1020.97 1020.92 1020.84 1020.80 1020.72 1020.65 1020.57 1020.53 1020.48 1020.41 1020.36 1020.28 1020.21 1020.12 1020.09 1019.97 1019.89 1019.80 1019.77 1019.68 1019.60
1021.68 1021.80 1021.84 1021.97 1022.01 1022.04 1022.12 1022.21 1022.24 1022.24 1022.24 1022.24 1022.24 1022.24 1022.24 1022.24 1022.24 1022.24 1022.24 1022.24 1022.24 1022.24 1022.24 1022.24 1022.21 1022.12 1022.09 1022.01 1021.97 1021.92 1021.92 1021.89 1021.80 1021.77 1021.68 1021.68 1021.60 1021.53 1021.45 1021.41 1021.33 1021.24 1021.24 1021.16 1021.09 1021.04 1020.97 1020.97 1020.92 1020.84 1020.80 1020.72 1020.68 1020.60 1020.53 1020.45 1020.41 1020.36 1020.28 1020.21 1020.12 1020.09 1019.97 1019.89 1019.80 1019.68 1019.65 1019.53 1019.48
1021.72 1021.80 1021.84 1021.97 1022.01 1022.09 1022.12 1022.21 1022.24 1022.24 1022.24 1022.24 1022.24 1022.24 1022.24 1022.24 1022.24 1022.24 1022.24 1022.24 1022.24 1022.24 1022.24 1022.21 1022.16 1022.09 1022.04 1022.01 1021.97 1021.92 1021.84 1021.80 1021.77 1021.72 1021.68 1021.60 1021.57 1021.48 1021.41 1021.41 1021.28 1021.24 1021.16 1021.12 1021.09 1021.01 1020.97 1020.89 1020.80 1020.77 1020.72 1020.68 1020.60 1020.53 1020.48 1020.36 1020.33 1020.28 1020.21 1020.09 1020.04 1019.97 1019.84 1019.77 1019.68 1019.57 1019.48 1019.41 1019.28
1021.77 1021.80 1021.89 1021.97 1022.04 1022.09 1022.12 1022.21 1022.24 1022.24 1022.24 1022.24 1022.24 1022.24 1022.24 1022.24 1022.24 1022.24 1022.24 1022.21 1022.24 1022.24 1022.24 1022.16 1022.09 1022.09 1022.04 1022.01 1021.97 1021.89 1021.80 1021.77 1021.68 1021.65 1021.60 1021.53 1021.48 1021.41 1021.41 1021.33 1021.24 1021.16 1021.09 1021.09 1021.04 1020.97 1020.89 1020.80 1020.80 1020.72 1020.65 1020.57 1020.53 1020.48 1020.36 1020.33 1020.28 1020.24 1020.12 1020.04 1019.97 1019.80 1019.72 1019.60 1019.53 1019.41 1019.28 1019.21 1019.09
1021.77 1021.80 1021.92 1022.01 1022.09 1022.12 1022.16 1022.24 1022.24 1022.24 1022.24 1022.24 1022.24 1022.24 1022.24 1022.24 1022.24 1022.24 1022.24 1022.24 1022.21 1022.16 1022.12 1022.12 1022.09 1022.04 1022.01 1021.97 1021.89 1021.80 1021.77 1021.68 1021.65 1021.57 1021.53 1021.48 1021.41 1021.36 1021.33 1021.24 1021.16 1021.09 1021.09 1021.01 1020.97 1020.89 1020.80 1020.77 1020.68 1020.65 1020.57 1020.53 1020.45 1020.36 1020.36 1020.28 1020.24 1020.16 1020.09 1020.01 1019.89 1019.72 1019.60 1019.48 1019.36 1019.24 1019.12 1019.04 1018.97
1021.80 1021.84 1021.97 1022.01 1022.09 1022.12 1022.21 1022.24 1022.24 1022.24 1022.24 1022.24 1022.21 1022.24 1022.24 1022.21 1022.21 1022.24 1022.24 1022.21 1022.16 1022.12 1022.09 1022.09 1022.09 1022.01 1021.97 1021.89 1021.80 1021.72 1021.68 1021.65 1021.57 1021.53 1021.45 1021.41 1021.36 1021.28 1021.24 1021.16 1021.12 1021.09 1021.01 1020.97 1020.89 1020.80 1020.77 1020.68 1020.65 1020.53 1020.53 1020.45 1020.36 1020.33 1020.28 1020.24 1020.16 1020.09 1020.01 1019.97 1019.80 1019.65 1019.53 1019.36 1019.24 1019.12 1019.04 1018.92 1018.80
1021.80 1021.89 1021.97 1022.01 1022.09 1022.12 1022.16 1022.21 1022.21 1022.21 1022.21 1022.21 1022.21 1022.24 1022.21 1022.21 1022.21 1022.21 1022.21 1022.12 1022.09 1022.09 1022.09 1022.09 1022.01 1021.97 1021.89 1021.80 1021.77 1021.68 1021.60 1021.53 1021.53 1021.45 1021.41 1021.33 1021.24 1021.21 1021.12 1021.09 1021.04 1021.01 1020.97 1020.92 1020.80 1020.77 1020.68 1020.65 1020.57 1020.48 1020.41 1020.36 1020.33 1020.24 1020.21 1020.16 1020.09 1019.97 1019.89 1019.80 1019.65 1019.53 1019.41 1019.24 1019.09 1018.97 1018.89 1018.80 1018.72
1021.80 1021.84 1021.92 1022.01 1022.09 1022.09 1022.12 1022.16 1022.16 1022.16 1022.16 1022.16 1022.16 1022.16 1022.21 1022.16 1022.21 1022.16 1022.12 1022.09 1022.09 1022.09 1022.04 1022.01 1021.97 1021.89 1021.80 1021.72 1021.68 1021.60 1021.53 1021.45 1021.41 1021.41 1021.33 1021.24 1021.21 1021.12 1021.09 1021.01 1020.97 1020.97 1020.92 1020.89 1020.80 1020.68 1020.65 1020.53 1020.48 1020.36 1020.33 1020.24 1020.12 1020.09 1020.01 1019.97 1019.92 1019.80 1019.72 1019.65 1019.48 1019.36 1019.24 1019.09 1019.01 1018.89 1018.77 1018.68 1018.60
1021.80 1021.84 1021.92 1021.97 1022.04 1022.09 1022.09 1022.09 1022.12 1022.12 1022.16 1022.16 1022.12 1022.12 1022.16 1022.16 1022.16 1022.12 1022.09 1022.09 1022.04 1022.01 1021.97 1021.97 1021.84 1021.80 1021.72 1021.65 1021.57 1021.53 1021.45 1021.41 1021.36 1021.28 1021.24 1021.21 1021.12 1021.09 1021.01 1021.01 1020.97 1020.97 1020.89 1020.80 1020.72 1020.68 1020.57 1020.45 1020.33 1020.24 1020.12 1020.04 1019.97 1019.92 1019.92 1019.84 1019.80 1019.68 1019.60 1019.48 1019.33 1019.21 1019.09 1019.01 1018.92 1018.80 1018.68 1018.57 1018.48
1021.77 1021.84 1021.92 1021.97 1022.01 1022.04 1022.09 1022.09 1022.12 1022.12 1022.12 1022.12 1022.12 1022.12 1022.12 1022.16 1022.12 1022.09 1022.09 1022.01 1022.01 1021.97 1021.92 1021.84 1021.77 1021.68 1021.65 1021.57 1021.53 1021.45 1021.41 1021.36 1021.33 1021.24 1021.16 1021.09 1021.09 1021.04 1020.97 1020.97 1020.92 1020.89 1020.80 1020.77 1020.68 1020.53 1020.36 1020.24 1020.09 1019.97 1019.89 1019.84 1019.80 1019.80 1019.77 1019.72 1019.65 1019.53 1019.41 1019.28 1019.12 1019.01 1018.97 1018.89 1018.80 1018.68 1018.57 1018.45 1018.33
1021.77 1021.80 1021.89 1021.97 1022.01 1022.04 1022.09 1022.09 1022.12 1022.12 1022.12 1022.09 1022.09 1022.09 1022.09 1022.09 1022.09 1022.09 1022.09 1022.01 1021.97 1021.92 1021.84 1021.80 1021.68 1021.65 1021.57 1021.53 1021.45 1021.41 1021.41 1021.33 1021.24 1021.24 1021.12 1021.04 1020.97 1020.97 1020.92 1020.89 1020.80 1020.80 1020.72 1020.60 1020.48 1020.28 1020.09 1019.97 1019.84 1019.72 1019.68 1019.65 1019.60 1019.60 1019.57 1019.53 1019.45 1019.36 1019.24 1019.09 1018.97 1018.84 1018.77 1018.68 1018.60 1018.53 1018.36 1018.24 1018.16
1021.72 1021.80 1021.92 1021.97 1022.01 1022.04 1022.09 1022.09 1022.09 1022.12 1022.09 1022.09 1022.09 1022.09 1022.09 1022.09 1022.09 1022.04 1022.04 1021.97 1021.92 1021.80 1021.77 1021.72 1021.68 1021.57 1021.53 1021.45 1021.41 1021.36 1021.33 1021.28 1021.21 1021.16 1021.09 1021.01 1020.92 1020.84 1020.80 1020.80 1020.72 1020.68 1020.60 1020.48 1020.28 1020.09 1019.92 1019.77 1019.60 1019.53 1019.45 1019.41 1019.41 1019.41 1019.41 1019.28 1019.24 1019.12 1019.04 1018.89 1018.77 1018.68 1018.57 1018.53 1018.36 1018.28 1018.21 1018.04 1017.92
1021.77 1021.84 1021.92 1021.97 1022.01 1022.04 1022.09 1022.09 1022.09 1022.09 1022.09 1022.09 1022.09 1022.09 1022.09 1022.04 1022.04 1022.01 1022.01 1021.97 1021.89 1021.80 1021.72 1021.68 1021.65 1021.53 1021.48 1021.45 1021.41 1021.36 1021.28 1021.21 1021.12 1021.09 1021.01 1020.97 1020.84 1020.80 1020.77 1020.68 1020.60 1020.57 1020.48 1020.33 1020.09 1019.92 1019.77 1019.57 1019.45 1019.36 1019.24 1019.24 1019.24 1019.21 1019.16 1019.12 1019.04 1018.97 1018.80 1018.68 1018.60 1018.53 1018.45 1018.41 1018.28 1018.16 1018.01 1017.84 1017.77
1021.84 1021.89 1021.92 1021.97 1022.01 1022.04 1022.04 1022.04 1022.04 1022.09 1022.09 1022.09 1022.09 1022.09 1022.04 1022.01 1022.01 1021.97 1021.97 1021.89 1021.80 1021.77 1021.72 1021.68 1021.57 1021.53 1021.48 1021.41 1021.41 1021.33 1021.21 1021.09 1021.04 1020.97 1020.92 1020.80 1020.80 1020.77 1020.68 1020.57 1020.53 1020.45 1020.33 1020.16 1019.97 1019.77 1019.60 1019.41 1019.28 1019.21 1019.12 1019.09 1019.04 1019.04 1019.01 1018.97 1018.89 1018.77 1018.68 1018.60 1018.53 1018.48 1018.45 1018.33 1018.21 1018.04 1017.89 1017.72 1017.65
1021.80 1021.84 1021.92 1021.97 1022.01 1022.04 1022.04 1022.04 1022.09 1022.09 1022.04 1022.04 1022.04 1022.04 1022.01 1021.97 1021.97 1021.97 1021.92 1021.84 1021.80 1021.80 1021.77 1021.68 1021.53 1021.48 1021.45 1021.41 1021.33 1021.24 1021.12 1021.04 1020.97 1020.92 1020.84 1020.80 1020.72 1020.68 1020.57 1020.48 1020.41 1020.33 1020.16 1019.97 1019.80 1019.68 1019.53 1019.33 1019.21 1019.09 1018.97 1018.92 1018.92 1018.92 1018.89 1018.84 1018.80 1018.68 1018.65 1018.57 1018.53 1018.45 1018.36 1018.21 1018.09 1017.92 1017.80 1017.65 1017.53
1021.80 1021.89 1021.97 1021.97 1022.01 1022.04 1022.04 1022.04 1022.04 1022.04 1022.04 1022.01 1022.01 1022.01 1022.01 1021.97 1021.97 1021.97 1021.92 1021.84 1021.84 1021.80 1021.68 1021.60 1021.53 1021.48 1021.45 1021.36 1021.24 1021.16 1021.09 1020.97 1020.89 1020.80 1020.80 1020.72 1020.68 1020.60 1020.53 1020.41 1020.36 1020.24 1020.09 1019.92 1019.72 1019.53 1019.36 1019.21 1019.09 1018.97 1018.89 1018.80 1018.77 1018.77 1018.77 1018.72 1018.72 1018.68 1018.57 1018.53 1018.41 1018.33 1018.24 1018.04 1017.92 1017.80 1017.68 1017.53 1017.41
1021.80 1021.89 1021.97 1021.97 1022.01 1022.04 1022.04 1022.04 1022.04 1022.04 1022.01 1022.01 1022.01 1022.01 1022.01 1021.97 1021.97 1021.97 1021.92 1021.84 1021.80 1021.68 1021.57 1021.53 1021.48 1021.45 1021.36 1021.24 1021.16 1021.09 1021.01 1020.92 1020.80 1020.80 1020.77 1020.68 1020.57 1020.53 1020.41 1020.36 1020.24 1020.16 1020.01 1019.80 1019.65 1019.45 1019.24 1019.09 1018.97 1018.89 1018.80 1018.68 1018.68 1018.68 1018.68 1018.68 1018.68 1018.57 1018.48 1018.41 1018.33 1018.21 1018.09 1017.97 1017.80 1017.68 1017.57 1017.45 1017.33
1021.80 1021.84 1021.92 1021.97 1022.01 1022.04 1022.04 1022.01 1022.01 1022.01 1022.01 1022.01 1022.01 1022.01 1022.01 1021.97 1021.97 1021.92 1021.84 1021.80 1021.72 1021.65 1021.53 1021.48 1021.45 1021.36 1021.24 1021.16 1021.09 1021.04 1020.97 1020.84 1020.80 1020.72 1020.68 1020.60 1020.53 1020.45 1020.36 1020.24 1020.16 1020.09 1019.92 1019.68 1019.53 1019.33 1019.12 1018.97 1018.84 1018.80 1018.72 1018.65 1018.57 1018.57 1018.65 1018.65 1018.57 1018.53 1018.41 1018.28 1018.16 1018.04 1017.92 1017.80 1017.68 1017.57 1017.45 1017.33 1017.24
1021.80 1021.84 1021.92 1021.97 1022.01 1022.01 1022.01 1022.01 1022.01 1022.01 1022.01 1022.01 1022.01 1022.01 1022.01 1021.97 1021.92 1021.84 1021.80 1021.72 1021.68 1021.65 1021.53 1021.45 1021.41 1021.28 1021.24 1021.12 1021.04 1020.97 1020.84 1020.80 1020.72 1020.65 1020.53 1020.48 1020.45 1020.36 1020.24 1020.16 1020.09 1019.97 1019.80 1019.60 1019.41 1019.16 1019.01 1018.84 1018.77 1018.68 1018.60 1018.53 1018.48 1018.53 1018.57 1018.53 1018.53 1018.41 1018.33 1018.21 1018.04 1017.92 1017.77 1017.65 1017.53 1017.41 1017.28 1017.21 1017.09
1021.80 1021.84 1021.92 1021.97 1021.97 1022.01 1022.01 1022.01 1022.01 1022.01 1022.01 1022.01 1022.01 1022.01 1021.97 1021.97 1021.92 1021.84 1021.77 1021.68 1021.60 1021.53 1021.45 1021.41 1021.33 1021.24 1021.12 1021.09 1020.97 1020.89 1020.80 1020.68 1020.65 1020.60 1020.53 1020.45 1020.36 1020.28 1020.21 1020.09 1020.01 1019.84 1019.68 1019.45 1019.24 1019.04 1018.89 1018.80 1018.68 1018.60 1018.53 1018.41 1018.41 1018.45 1018.53 1018.48 1018.41 1018.33 1018.21 1018.09 1017.89 1017.77 1017.65 1017.48 1017.36 1017.21 1017.09 1016.97 1016.89
1021.80 1021.84 1021.92 1021.97 1021.97 1022.01 1022.01 1022.01 1022.01 1022.01 1022.01 1022.01 1022.01 1021.97 1021.97 1021.92 1021.84 1021.80 1021.68 1021.57 1021.48 1021.45 1021.41 1021.33 1021.24 1021.12 1021.09 1020.97 1020.89 1020.80 1020.72 1020.65 1020.57 1020.53 1020.41 1020.36 1020.28 1020.21 1020.09 1019.97 1019.89 1019.68 1019.53 1019.28 1019.09 1018.92 1018.80 1018.72 1018.65 1018.53 1018.41 1018.33 1018.36 1018.41 1018.41 1018.36 1018.33 1018.21 1018.09 1017.92 1017.77 1017.60 1017.48 1017.33 1017.21 1017.04 1016.89 1016.77 1016.65
1021.80 1021.84 1021.97 1021.97 1021.97 1022.01 1022.01 1022.01 1022.01 1022.04 1022.04 1022.01 1022.01 1021.97 1021.89 1021.84 1021.80 1021.72 1021.60 1021.48 1021.41 1021.41 1021.33 1021.24 1021.12 1021.09 1021.01 1020.97 1020.80 1020.72 1020.68 1020.57 1020.48 1020.36 1020.33 1020.24 1020.21 1020.09 1019.97 1019.84 1019.72 1019.53 1019.36 1019.16 1018.97 1018.80 1018.68 1018.60 1018.53 1018.41 1018.28 1018.24 1018.33 1018.36 1018.33 1018.24 1018.21 1018.09 1017.92 1017.77 1017.65 1017.48 1017.33 1017.21 1017.09 1016.89 1016.72 1016.57 1016.41
1021.77 1021.84 1021.92 1021.97 1021.97 1022.01 1022.01 1022.01 1022.01 1022.04 1022.04 1022.01 1021.97 1021.92 1021.84 1021.80 1021.68 1021.60 1021.53 1021.45 1021.41 1021.36 1021.28 1021.16 1021.09 1021.01 1020.97 1020.80 1020.72 1020.68 1020.57 1020.48 1020.41 1020.33 1020.24 1020.12 1020.09 1019.97 1019.84 1019.72 1019.57 1019.41 1019.24 1019.09 1018.92 1018.80 1018.65 1018.53 1018.36 1018.28 1018.21 1018.16 1018.21 1018.21 1018.16 1018.12 1018.04 1017.97 1017.80 1017.68 1017.53 1017.41 1017.24 1017.09 1016.89 1016.72 1016.57 1016.45 1016.28
1021.77 1021.80 1021.89 1021.97 1021.97 1021.97 1021.97 1021.97 1021.97 1021.97 1021.97 1021.97 1021.89 1021.80 1021.77 1021.68 1021.65 1021.53 1021.45 1021.36 1021.36 1021.33 1021.24 1021.12 1021.04 1020.97 1020.84 1020.72 1020.65 1020.53 1020.45 1020.36 1020.28 1020.24 1020.12 1020.09 1019.97 1019.84 1019.72 1019.57 1019.41 1019.28 1019.16 1019.04 1018.92 1018.77 1018.57 1018.36 1018.28 1018.16 1018.09 1018.09 1018.04 1018.04 1018.01 1017.97 1017.92 1017.80 1017.68 1017.53 1017.41 1017.24 1017.09 1016.89 1016.72 1016.53 1016.36 1016.28 1016.12
1021.72 1021.80 1021.84 1021.92 1021.92 1021.92 1021.97 1021.97 1021.97 1021.97 1021.92 1021.84 1021.80 1021.72 1021.68 1021.60 1021.53 1021.45 1021.36 1021.24 1021.24 1021.21 1021.12 1021.04 1020.97 1020.80 1020.72 1020.60 1020.53 1020.41 1020.33 1020.24 1020.16 1020.09 1020.04 1019.97 1019.84 1019.68 1019.53 1019.45 1019.36 1019.28 1019.21 1019.09 1018.92 1018.72 1018.53 1018.36 1018.21 1018.09 1018.01 1017.97 1017.92 1017.92 1017.89 1017.89 1017.80 1017.68 1017.53 1017.41 1017.24 1017.09 1016.89 1016.72 1016.57 1016.45 1016.28 1016.16 1016.01
1021.72 1021.77 1021.80 1021.80 1021.84 1021.89 1021.89 1021.92 1021.89 1021.89 1021.84 1021.80 1021.77 1021.68 1021.60 1021.53 1021.41 1021.33 1021.24 1021.16 1021.12 1021.09 1021.04 1020.92 1020.80 1020.72 1020.60 1020.48 1020.36 1020.33 1020.24 1020.16 1020.09 1020.01 1019.92 1019.80 1019.68 1019.53 1019.41 1019.41 1019.41 1019.33 1019.24 1019.09 1018.89 1018.68 1018.53 1018.28 1018.12 1018.01 1017.97 1017.92 1017.80 1017.80 1017.80 1017.77 1017.68 1017.57 1017.41 1017.24 1017.09 1016.97 1016.77 1016.60 1016.48 1016.36 1016.24 1016.09 1015.92
1021.68 1021.68 1021.72 1021.77 1021.80 1021.80 1021.80 1021.84 1021.80 1021.77 1021.77 1021.72 1021.68 1021.60 1021.53 1021.41 1021.33 1021.24 1021.16 1021.12 1021.09 1020.97 1020.92 1020.80 1020.72 1020.65 1020.53 1020.36 1020.33 1020.24 1020.12 1020.09 1019.97 1019.89 1019.80 1019.68 1019.57 1019.48 1019.41 1019.45 1019.41 1019.36 1019.24 1019.09 1018.92 1018.68 1018.45 1018.24 1018.09 1017.97 1017.84 1017.80 1017.68 1017.68 1017.68 1017.68 1017.57 1017.45 1017.33 1017.16 1017.04 1016.89 1016.68 1016.53 1016.36 1016.24 1016.09 1015.97 1015.84
Wind_Speed
5 4 3 3 3 3 3 2 2 2 2 2 2 2 2 2 2 2 1 1 1 1 1 1 1 1 2 3 3 3 4 4 5 5 6 6 6 6 6 6 5 5 5 5 5 5 5 5 4 4 3 3 3 3 3 3 4 4 5 5 5 5 5 6 6 7 7 7 6
5 4 4 4 4 4 3 2 2 2 2 2 2 1 1 1 1 1 1 1 1 1 1 1 1 1 2 3 3 3 4 4 5 5 5 6 6 6 6 6 6 6 6 6 5 5 4 4 4 4 3 3 3 4 4 4 4 5 5 6 5 5 5 6 6 6 7 6 5
4 4 3 3 3 3 3 2 2 2 2 2 1 1 1 1 1 1 1 1 1 1 1 1 1 1 2 2 3 3 3 4 4 5 5 5 6 6 6 6 6 6 6 6 5 5 5 5 4 4 4 4 4 4 4 4 4 4 5 6 5 4 4 5 5 5 5 5 5
4 3 3 3 4 3 3 2 2 2 2 2 1 1 1 1 1 1 0 0 1 1 1 1 1 2 2 2 3 3 4 4 5 5 5 5 6 6 6 6 6 6 6 5 5 5 5 5 4 4 4 4 4 4 4 4 4 4 4 4 4 4 4 4 5 5 5 5 5
4 4 4 4 4 4 3 2 2 2 2 1 1 1 1 1 1 1 1 1 1 1 1 1 2 2 2 3 3 4 4 5 5 5 5 5 6 6 6 6 6 6 6 6 6 6 6 6 4 4 4 4 4 4 4 5 4 4 4 4 4 4 4 4 4 4 4 4 4
4 4 4 4 4 4 3 2 2 2 1 1 1 1 1 1 2 2 1 1 1 2 2 2 2 3 3 3 4 4 4 4 5 5 5 5 5 5 6 6 6 6 6 6 6 6 6 5 4 4 4 4 4 4 4 5 5 4 4 4 4 4 4 4 4 4 4 5 5
4 4 4 4 4 4 3 2 2 2 1 1 2 2 2 2 2 2 2 2 2 2 2 3 3 3 3 3 4 4 4 4 4 5 5 5 5 6 6 6 6 6 6 6 6 6 5 5 4 4 4 4 4 4 5 5 5 5 5 5 4 4 4 4 4 4 5 6 6
4 4 4 4 4 3 3 2 2 2 2 2 2 2 2 2 2 2 2 2 2 2 2 2 2 3 3 3 4 4 4 5 5 5 5 5 5 6 6 6 6 6 6 6 6 6 5 4 4 4 4 4 4 4 5 6 6 6 6 6 5 4 4 4 4 4 5 6 6
4 4 4 4 3 3 2 2 2 2 2 2 2 2 2 2 1 1 1 1 1 2 2 2 3 3 3 4 4 4 4 5 5 5 5 5 6 6 6 6 6 6 6 6 6 6 6 4 4 4 4 4 4 5 5 7 7 7 7 6 6 5 5 5 4 5 5 6 7
3 3 3 3 3 2 2 2 2 1 1 1 1 2 2 2 1 1 1 1 1 2 2 2 3 3 4 4 4 5 5 5 5 5 6 6 6 6 6 6 6 6 6 6 5 5 5 4 4 4 4 4 5 6 6 7 7 8 7 5 6 6 6 6 6 6 6 6 7
3 3 3 3 2 2 2 2 2 2 1 1 1 1 2 2 2 1 1 1 1 2 2 2 3 3 4 4 4 4 5 5 5 5 6 6 6 7 7 6 7 7 7 6 5 5 4 4 5 5 6 5 5 6 7 7 7 8 7 6 6 7 7 7 6 6 6 6 7
3 3 3 2 2 1 1 1 1 1 1 1 1 1 2 2 2 2 2 2 2 2 3 3 3 4 4 4 4 5 5 5 5 6 6 6 7 7 7 7 7 7 7 6 5 4 4 4 5 6 6 6 6 6 6 7 7 8 8 7 7 7 7 8 8 7 6 6 7
3 3 2 2 1 1 0 1 1 1 1 1 1 1 1 1 2 2 2 2 2 2 2 3 3 3 4 4 4 4 5 5 6 6 6 6 7 7 7 7 7 7 6 6 5 4 4 5 6 7 7 7 6 6 6 7 7 8 8 8 8 8 8 8 8 7 7 7 7
3 2 2 1 1 0 0 1 1 1 1 1 1 1 1 2 2 2 2 2 2 2 3 3 3 3 4 4 4 5 5 6 6 6 7 7 7 7 7 6 7 6 6 6 5 5 6 6 6 7 7 7 7 7 7 7 7 7 8 8 8 8 8 8 8 8 7 8 8
3 2 2 1 0 0 1 1 1 1 1 2 2 2 2 2 2 2 2 2 2 3 3 3 3 3 4 4 5 5 6 6 6 7 7 7 7 7 7 6 7 6 6 6 5 5 6 6 7 7 7 7 7 7 7 7 7 7 7 7 8 8 8 8 8 8 8 8 8
2 2 2 1 1 1 1 1 1 1 1 2 2 2 2 2 2 2 2 2 3 3 3 3 4 4 4 4 5 5 6 6 6 6 6 6 7 7 7 7 7 7 6 6 6 6 6 6 6 6 7 7 7 7 7 7 7 7 7 7 8 8 8 8 8 8 8 8 8
2 2 1 1 1 1 1 1 1 1 1 2 2 2 2 2 2 2 2 3 3 3 3 4 4 4 4 4 5 5 5 5 6 6 6 6 6 7 7 7 7 7 6 6 6 6 6 6 6 6 7 7 7 7 7 7 7 7 7 7 8 8 8 8 9 8 9 9 9
1 1 1 1 1 1 1 1 1 1 1 2 2 2 2 2 2 2 2 3 3 3 4 4 4 4 4 5 5 5 4 5 6 6 6 6 6 7 7 7 7 6 6 6 6 7 7 7 7 7 6 6 6 6 6 6 6 7 7 8 8 8 9 9 9 9 9 9 9
1 1 1 1 1 1 1 1 1 2 2 2 2 2 2 2 2 2 3 3 3 3 4 5 5 5 5 6 5 5 5 5 6 6 6 6 6 7 7 7 6 6 6 6 6 6 7 7 7 7 6 6 6 6 6 6 6 7 8 8 9 9 10 10 11 11 11 11 10
1 1 1 1 1 1 1 1 2 2 2 2 2 2 2 2 3 3 3 3 3 4 4 5 5 5 6 6 6 6 5 4 5 6 6 6 6 6 6 6 6 6 6 6 6 7 7 7 7 7 6 6 6 6 6 6 7 8 8 9 9 10 11 11 11 12 12 12 11
1 1 1 1 1 1 1 1 2 2 2 2 2 2 2 3 3 3 3 4 4 4 4 5 5 6 6 6 6 6 5 4 5 6 6 6 6 6 6 6 6 6 6 6 6 7 7 7 7 6 6 6 6 6 6 6 7 8 9 9 9 10 11 11 11 11 11 10 9
1 1 1 1 1 1 1 2 2 2 2 3 2 2 2 3 3 3 3 4 4 4 4 5 5 6 6 6 6 6 6 5 5 6 6 6 6 6 6 5 6 6 6 6 6 7 7 7 7 7 6 6 7 7 8 8 8 8 9 9 10 11 11 11 11 10 10 9 9
1 1 1 1 0 1 2 2 2 2 3 3 2 2 3 3 3 3 4 4 4 4 5 5 5 5 5 5 6 6 6 5 6 6 6 6 5 5 5 5 5 6 6 6 6 6 6 7 7 7 7 7 7 7 7 8 8 8 9 10 10 11 11 10 10 10 10 10 9
1 1 1 0 1 1 2 2 2 2 3 3 2 3 3 3 3 4 4 4 5 5 5 5 5 5 5 5 6 6 6 6 6 6 6 6 6 6 5 5 5 5 6 5 7 8 8 7 7 7 7 7 7 7 7 7 7 8 9 10 10 10 10 10 10 9 10 10 10
1 1 0 0 1 1 2 2 2 3 3 2 2 2 3 3 3 4 4 5 5 6 6 6 5 5 5 5 5 6 6 6 7 6 6 6 6 6 5 5 5 5 5 6 11 14 15 13 10 8 7 7 6 6 6 7 8 8 9 9 10 10 9 9 9 9 9 10 10
1 1 0 1 1 2 2 3 3 3 3 2 2 3 3 3 3 4 4 5 5 6 6 5 5 5 5 5 5 6 6 6 6 6 6 6 6 6 5 5 5 4 5 8 14 17 18 18 17 14 11 8 7 6 6 6 7 8 9 10 9 9 8 8 8 9 9 10 10
1 0 0 1 1 2 3 3 3 3 3 3 3 3 3 3 3 4 5 5 5 5 5 5 5 5 5 5 5 6 6 6 6 6 7 7 7 6 6 5 5 5 6 11 16 18 19 19 19 18 15 10 8 7 7 6 7 8 9 9 8 8 7 8 8 9 10 10 9
0 0 1 1 2 2 3 3 3 3 3 3 3 3 3 4 4 5 5 5 5 5 5 4 4 4 4 4 5 6 7 7 6 6 6 6 6 6 6 5 5 6 9 14 17 19 19 19 19 19 17 14 9 7 7 7 8 7 7 6 6 6 7 7 8 8 9 10 9
1 1 1 1 2 2 3 3 3 3 3 3 3 3 4 4 5 5 5 5 5 5 5 4 4 4 4 4 5 6 7 7 6 6 5 5 5 6 6 6 6 8 12 17 19 19 19 19 19 19 18 16 10 7 6 6 6 6 5 5 5 6 6 7 7 8 9 9 9
1 1 1 2 2 2 3 3 3 3 3 3 3 4 4 5 5 5 5 5 5 5 5 5 4 5 5 6 6 6 6 6 6 6 5 6 6 6 7 7 7 8 12 17 19 19 19 19 19 19 19 18 13 9 6 6 5 5 5 5 6 7 8 8 9 9 9 9 9
1 1 1 2 2 2 3 3 3 3 3 3 4 4 5 5 5 5 5 5 5 5 6 5 5 6 6 6 6 6 6 6 6 6 6 6 7 7 7 7 7 9 12 17 19 19 19 19 19 19 19 18 14 9 6 5 5 5 5 6 7 8 8 9 9 10 10 10 10
1 1 1 2 2 2 3 3 3 3 4 4 4 5 5 5 5 4 4 5 5 5 6 5 6 6 7 7 6 6 7 7 7 7 6 7 7 7 7 7 7 9 12 17 19 19 19 19 19 19 19 19 14 10 6 5 5 5 6 7 8 9 9 8 8 9 11 11 10
1 1 1 2 2 2 3 3 3 3 4 4 4 5 5 5 4 5 5 5 5 5 5 5 6 6 6 7 6 7 7 7 7 7 7 7 7 7 7 7 7 9 13 18 19 19 19 19 19 19 19 19 13 9 6 5 5 5 6 7 8 9 9 10 9 10 10 11 10
1 1 1 2 2 2 3 3 3 4 4 4 5 5 5 5 5 5 5 5 5 5 5 5 5 6 6 6 6 7 7 7 7 7 7 7 7 7 7 7 6 9 14 18 19 19 19 19 19 19 18 18 12 7 5 5 5 5 6 7 8 9 9 10 10 10 11 11 11
1 1 2 2 2 3 3 3 3 4 4 5 5 5 5 4 5 5 5 6 5 5 5 5 5 5 5 6 6 6 7 8 7 7 7 7 7 8 8 7 7 11 15 19 19 19 19 19 18 19 18 15 9 6 5 6 5 6 7 8 9 9 10 10 10 11 11 11 11
1 2 2 2 3 3 3 3 4 4 4 5 5 5 5 5 5 5 5 6 6 5 5 5 5 5 6 6 6 6 7 7 7 7 7 7 7 7 8 8 8 11 15 18 19 19 19 19 18 18 17 13 7 5 5 5 5 6 7 9 9 10 10 11 11 11 11 10 10
2 2 2 2 3 3 3 3 4 4 5 5 5 5 5 5 5 5 5 5 5 5 5 6 6 6 6 6 6 6 6 7 7 7 8 8 7 8 8 8 8 10 13 17 18 19 19 19 19 18 15 10 7 5 5 4 4 5 7 8 8 9 10 10 10 10 10 9 9
2 2 2 2 3 3 3 3 4 4 5 5 4 4 4 5 4 5 5 5 5 5 5 5 6 6 6 7 7 7 7 7 7 7 7 8 7 8 8 8 8 9 11 15 18 19 19 19 19 18 15 10 7 5 5 4 4 5 6 7 7 8 9 8 8 8 8 9 12
2 2 2 2 3 3 3 3 4 4 4 5 5 5 5 5 4 4 5 5 4 5 5 5 6 7 7 8 8 8 7 7 7 7 7 7 8 9 10 9 8 8 11 15 18 19 20 19 19 18 16 11 7 5 4 4 5 5 6 6 7 8 8 8 7 7 7 9 13
2 2 2 3 3 3 3 4 4 4 4 4 5 5 5 5 5 5 5 5 5 5 5 6 7 7 8 9 8 8 8 8 7 7 7 7 9 10 11 9 8 8 11 15 18 19 20 20 19 18 16 10 7 5 4 4 5 5 6 7 7 7 7 7 7 6 7 8 10
2 2 3 3 3 3 3 4 4 4 4 4 5 5 5 5 5 5 5 5 5 5 5 6 7 8 8 9 8 8 8 8 7 7 7 8 8 9 9 7 7 8 10 13 17 19 20 19 19 18 16 11 8 6 4 4 5 6 6 7 7 7 7 7 7 7 6 6 6
Wind_Direction
92 90 90 91 92 92 90 88 82 78 74 74 72 66 59 53 45 41 40 42 36 18 354 338 338 341 342 342 341 338 335 333 330 326 323 320 317 315 313 313 314 315 315 315 316 317 317 317 316 314 310 306 304 301 299 297 297 295 294 293 292 291 290 290 288 287 285 284 282
97 100 103 106 108 110 110 108 99 90 84 80 82 79 72 67 57 46 35 26 15 355 337 327 333 337 338 337 335 334 331 327 323 320 318 316 313 312 313 313 313 314 314 314 315 316 315 315 314 312 308 304 303 300 298 295 295 295 295 294 293 294 295 294 291 290 289 289 290
96 98 100 103 107 109 112 113 107 101 96 91 92 92 91 87 81 67 44 5 338 325 320 317 330 335 337 334 331 329 325 321 318 316 314 312 310 310 311 311 311 312 312 313 314 314 312 311 310 306 302 299 298 296 294 294 294 294 294 293 294 295 296 294 294 294 296 296 297
80 80 80 80 82 85 90 97 102 106 108 113 120 125 126 119 109 102 76 344 319 315 316 328 336 338 337 332 327 324 320 318 316 314 311 309 307 306 307 308 309 310 311 312 312 311 309 308 305 301 297 294 292 290 289 289 291 291 291 291 292 293 293 292 293 296 298 298 300
69 67 67 69 69 69 69 71 81 91 103 117 130 134 129 116 104 85 45 3 331 328 337 351 348 342 335 330 324 320 317 315 313 311 307 305 303 304 305 307 308 308 309 310 309 307 305 305 302 298 294 291 288 286 283 285 288 288 288 289 290 289 289 290 292 294 297 298 302
74 69 66 65 64 62 59 54 57 65 76 84 69 59 57 57 51 37 19 355 336 340 351 357 350 340 331 325 319 315 312 309 308 305 302 301 301 303 306 307 307 307 307 306 305 303 303 304 302 298 294 292 289 286 285 286 288 289 288 288 287 287 287 288 289 292 295 296 297
81 76 71 67 63 59 52 41 34 30 33 42 41 39 38 39 32 18 0 340 342 351 357 356 344 330 320 314 310 307 306 304 303 302 301 301 303 305 306 306 305 305 304 302 302 302 302 302 301 298 296 294 292 290 290 291 291 291 289 288 287 286 285 285 286 287 288 288 288
77 75 72 68 64 59 50 37 23 15 14 22 29 32 33 34 23 5 348 342 351 355 352 344 323 311 305 305 304 304 304 303 303 303 303 304 305 305 304 303 303 302 301 300 301 301 300 300 298 296 295 295 293 293 293 294 293 291 290 287 286 285 283 282 283 282 282 282 282
77 75 74 70 64 57 46 32 19 9 5 6 16 21 24 23 12 0 350 348 349 346 337 320 306 303 303 306 306 305 305 304 304 304 304 305 305 304 303 303 302 301 301 300 299 299 299 299 297 295 294 294 294 292 292 293 293 292 290 287 287 286 284 282 283 283 282 282 282
91 88 83 75 63 49 33 14 0 353 355 355 4 9 12 6 4 358 355 350 345 333 319 304 304 308 310 310 309 306 304 304 303 304 303 303 303 302 302 302 302 301 300 300 299 300 300 301 299 297 295 294 293 293 293 293 293 292 291 290 289 289 288 288 287 287 287 285 284
94 88 82 76 64 45 22 357 342 339 344 352 358 5 6 3 358 351 347 347 339 320 307 303 311 313 313 310 306 304 303 303 303 303 302 301 301 300 299 299 299 299 300 300 301 303 304 304 301 299 297 296 295 295 295 296 295 295 295 294 294 295 294 294 293 292 291 288 287
92 85 80 76 70 52 19 341 332 333 339 343 355 7 10 2 349 342 340 342 329 314 308 311 315 314 310 306 303 303 303 303 303 302 301 300 299 298 298 298 298 299 301 302 304 307 308 306 304 302 301 300 300 300 300 300 300 300 300 299 300 299 298 298 297 296 294 291 290
99 96 91 87 85 74 12 322 327 330 334 336 352 7 10 353 339 337 337 337 324 316 313 314 312 308 305 301 301 302 303 302 302 301 300 298 298 298 299 299 301 302 304 306 308 310 310 307 305 304 303 303 303 302 302 302 302 302 301 301 301 300 298 297 297 296 295 294 292
110 110 110 110 108 87 16 350 340 334 333 341 357 5 1 344 335 335 337 333 322 315 311 309 305 301 298 298 300 302 303 303 301 300 299 298 298 300 301 302 304 305 307 309 310 311 310 307 305 304 303 303 302 301 301 302 301 300 299 298 298 297 296 295 295 295 294 293 290
121 122 124 133 124 80 41 20 357 348 346 350 354 356 350 336 332 333 332 325 315 308 303 302 298 296 297 300 302 303 303 302 300 299 299 299 301 302 304 306 307 309 310 310 310 309 307 305 304 302 301 301 300 300 299 299 298 297 296 295 294 293 292 291 291 290 288 286 285
130 132 134 143 121 82 54 32 10 356 351 346 342 341 336 327 326 327 323 313 307 303 300 297 296 298 301 304 303 302 300 298 298 298 299 300 303 304 306 307 308 308 308 308 307 306 303 302 301 300 299 298 298 298 298 298 297 295 293 292 290 288 287 286 285 283 281 278 277
136 136 136 130 91 65 47 28 10 353 338 327 324 321 319 315 317 314 309 303 301 300 300 299 300 303 305 304 301 299 297 296 296 298 299 301 303 304 305 305 305 305 305 305 304 303 302 300 300 299 299 298 298 298 299 299 298 297 295 292 290 287 285 283 281 279 276 274 273
138 134 122 97 68 48 30 8 351 333 320 314 310 310 309 309 308 304 301 299 299 299 301 302 304 304 303 299 296 295 295 296 297 298 299 300 301 302 302 301 301 301 301 302 302 302 301 301 301 301 300 300 300 301 301 303 302 301 299 297 295 291 289 286 284 281 279 276 276
134 119 98 75 56 36 11 349 333 321 314 309 307 307 308 307 306 305 303 302 302 303 304 304 303 300 297 294 293 294 295 297 298 299 299 299 300 300 299 299 299 300 302 302 302 302 302 301 301 302 302 302 303 304 305 306 305 304 302 300 297 295 292 290 289 288 286 285 282
128 101 80 67 48 23 354 332 320 313 308 305 305 306 307 308 311 309 307 304 304 305 304 301 297 295 292 291 293 295 296 297 298 297 297 297 298 298 297 298 300 302 304 305 304 303 302 301 301 301 302 302 303 303 304 303 302 300 298 296 294 292 290 289 289 290 290 289 286
120 92 75 62 40 4 328 312 306 302 300 299 300 303 306 311 313 310 306 303 304 303 299 294 290 289 289 290 293 294 295 295 295 295 295 295 295 296 298 300 304 306 306 306 304 302 301 299 299 298 297 297 296 296 296 296 294 292 291 289 287 287 287 287 288 288 289 290 291
115 92 79 63 25 329 306 297 295 294 294 295 299 305 312 315 312 308 306 305 304 300 295 289 286 285 287 289 292 294 295 295 296 295 294 295 296 298 300 305 308 308 307 304 302 299 297 295 291 289 287 287 288 289 291 291 290 288 287 285 284 285 286 286 286 287 287 288 290
118 97 85 66 345 303 294 291 291 291 293 296 305 312 316 315 311 310 308 307 303 298 293 289 287 287 288 291 295 297 299 300 299 298 297 298 299 301 304 307 308 306 303 300 297 294 290 286 281 278 277 281 285 288 289 289 288 286 284 283 284 285 285 285 285 286 287 287 285
119 103 93 76 303 292 291 292 294 295 298 302 309 314 316 313 311 310 308 305 300 297 295 294 294 295 296 299 302 304 304 303 302 300 299 300 301 302 303 305 303 299 296 293 293 291 288 284 278 276 278 282 285 287 286 284 282 281 280 281 284 285 285 283 282 283 285 285 283
107 101 95 298 292 292 294 296 296 297 299 304 310 313 314 312 310 308 305 302 298 297 297 298 302 303 305 307 307 306 304 302 301 300 299 299 299 299 299 299 296 293 291 290 292 293 294 294 293 291 291 291 289 287 285 282 280 279 278 279 281 282 283 284 283 283 282 282 280
76 80 21 293 297 297 296 294 294 297 301 307 313 315 313 309 307 304 302 299 298 299 301 306 308 310 311 310 308 306 303 300 298 297 297 296 297 296 296 295 292 289 289 291 294 296 297 298 299 300 301 300 298 294 289 284 279 276 274 273 273 275 279 284 285 285 284 282 281
37 21 302 292 296 295 293 292 297 303 309 315 318 316 311 308 306 303 302 300 301 304 308 312 311 311 311 308 305 302 299 297 295 294 293 293 294 294 294 293 291 288 289 293 296 297 299 301 302 304 305 304 302 299 294 288 283 278 275 272 272 276 281 286 288 288 288 288 287
334 296 286 294 294 293 293 299 308 313 318 320 319 315 311 309 307 305 305 305 309 312 314 314 310 309 308 304 300 297 295 294 293 293 292 292 293 295 295 296 294 293 295 298 299 301 302 303 304 305 306 307 304 302 299 295 292 288 286 284 287 289 290 288 288 289 290 291 293
298 297 300 302 298 298 302 309 316 319 321 321 318 316 314 312 311 310 311 313 315 316 313 309 307 305 303 300 296 295 295 295 295 295 296 300 301 301 301 299 298 298 299 302 302 302 303 303 305 306 307 309 307 307 306 303 302 301 301 301 300 296 291 288 287 288 289 291 293
317 321 317 309 305 306 310 315 319 322 322 321 320 318 316 315 314 314 315 316 314 311 307 304 304 302 300 297 297 298 299 298 299 301 304 307 307 306 305 303 301 300 301 303 303 303 303 303 305 307 309 310 310 310 311 311 309 308 306 302 296 291 289 288 288 288 288 288 289
326 323 313 306 305 309 313 318 322 324 325 323 322 319 317 315 315 314 314 313 307 304 302 302 301 300 299 298 300 301 301 301 304 306 308 308 307 306 304 302 301 300 301 303 303 303 303 304 306 309 311 313 315 317 320 319 313 308 303 298 293 290 289 288 288 287 287 286 286
305 303 300 301 306 311 316 322 325 326 325 324 321 317 315 314 312 311 309 306 303 303 303 302 302 302 301 303 303 303 304 304 306 306 307 307 306 305 303 302 301 301 302 303 303 303 303 305 308 311 313 315 316 320 324 318 310 303 296 292 288 286 285 285 286 287 287 288 287
287 292 299 306 312 318 322 325 326 326 325 322 318 315 313 313 311 309 307 304 303 301 301 301 303 303 303 304 304 304 304 304 304 305 306 307 306 304 303 302 300 300 302 303 303 304 305 308 311 313 313 314 316 320 323 314 306 299 294 289 286 284 283 283 284 285 287 288 287
301 312 318 322 323 324 324 326 326 325 323 319 315 314 313 311 309 307 305 303 301 300 300 300 301 301 301 301 302 302 303 304 305 306 306 307 305 304 303 302 297 299 302 303 304 306 308 310 312 312 311 312 315 318 318 310 303 297 292 288 285 284 284 284 285 285 285 284 283
330 334 332 329 327 325 325 325 325 323 320 316 313 311 310 307 304 301 300 300 301 301 301 301 301 300 300 300 300 301 303 304 305 305 305 305 304 303 301 299 294 298 302 305 307 308 310 311 311 310 310 311 314 316 313 306 300 294 290 287 286 286 287 288 288 287 284 281 276
342 340 334 327 325 323 322 322 321 319 315 312 309 307 305 302 300 298 297 301 302 302 301 301 301 302 301 301 301 301 302 302 303 303 303 304 303 302 300 297 293 298 304 308 310 311 312 311 310 309 309 311 313 312 308 303 297 291 288 287 287 288 289 290 289 288 286 282 276
343 338 330 322 318 317 316 317 316 313 309 306 304 303 301 300 298 297 298 301 302 301 300 300 301 300 300 300 299 299 299 299 301 302 302 303 303 301 298 296 294 300 307 313 314 314 313 312 310 309 309 310 311 310 306 300 294 289 287 287 288 288 288 288 288 288 287 288 287
339 332 323 315 310 309 310 312 310 306 303 302 300 299 299 299 298 297 298 300 299 298 298 299 299 298 298 299 298 298 298 299 301 301 302 303 301 300 299 299 301 308 315 319 317 315 313 312 310 310 310 310 311 310 305 298 292 289 288 288 288 287 286 285 286 287 290 293 298
326 317 309 302 301 302 304 306 303 301 300 300 299 299 298 298 296 295 296 297 295 295 296 297 298 298 299 301 302 302 302 301 302 302 302 300 299 301 304 308 315 321 324 323 319 315 313 311 310 310 311 312 313 311 304 296 291 289 288 289 289 288 286 285 287 289 292 293 300
308 301 296 292 293 297 300 302 300 298 298 299 299 298 297 296 294 294 295 295 294 295 296 297 298 299 301 304 304 304 304 304 303 302 300 298 299 306 314 321 327 328 325 321 317 314 312 311 310 312 314 315 315 311 304 295 291 290 289 290 291 290 290 289 290 291 292 292 299
292 289 287 286 290 295 298 300 299 298 299 299 298 296 295 295 295 296 297 298 297 298 299 300 299 300 301 304 304 305 305 305 304 301 299 299 303 314 325 333 332 327 321 316 313 312 311 312 314 317 320 321 320 316 310 301 294 291 289 288 287 288 288 289 289 289 288 290 291